軌道要素
Epoch 2019 Apr. 27.0 TT = JDT 2458600.5
T 2019 Apr. 9.13828 TT MPCW
q 2.3134559 (2000.0) P Q
n 0.13265015 Peri. 221.20903 -0.04037250 -0.98147352
a 3.8077131 Node 231.95865 +0.96771575 +0.00826548
e 0.3924290 Incl. 13.75768 +0.24878963 -0.19141946
P 7.43
From 782 observations 2011 Nov. 28-2019 Apr. 1, mean residual 0".6.
|